Satellite: NOAA-11
Catalog number: 19531
Epoch time:      06187.31353959
Element set:     186
Inclination:      098.8266 deg
RA of node:       275.5246 deg
Eccentricity:    0.0010908
Arg of perigee:   297.0513 deg
Mean anomaly:     062.9580 deg
Mean motion:   14.14810332 rev/day
Decay rate:       -5.8e-07 rev/day^2
Epoch rev:           91724
Checksum:              316

Satellite: NOAA-12
Catalog number: 21263
Epoch time:      06187.47830728
Element set:     680
Inclination:      098.7302 deg
RA of node:       180.6812 deg
Eccentricity:    0.0013489
Arg of perigee:   035.6151 deg
Mean anomaly:     324.5921 deg
Mean motion:   14.25488382 rev/day
Decay rate:        2.5e-07 rev/day^2
Epoch rev:           78699
Checksum:              321

Satellite: MET-3/5
Catalog number: 21655
Epoch time:      06186.97848539
Element set:    0136
Inclination:      082.5522 deg
RA of node:       247.5113 deg
Eccentricity:    0.0013672
Arg of perigee:   000.1772 deg
Mean anomaly:     359.9356 deg
Mean motion:   13.17006439 rev/day
Decay rate:        5.1e-07 rev/day^2
Epoch rev:           71583
Checksum:              309

Satellite: MET-2/21
Catalog number: 22782
Epoch time:      06186.83434949
Element set:     551
Inclination:      082.5492 deg
RA of node:       316.6586 deg
Eccentricity:    0.0023653
Arg of perigee:   125.3497 deg
Mean anomaly:     234.9895 deg
Mean motion:   13.83607151 rev/day
Decay rate:        5.3e-07 rev/day^2
Epoch rev:           64862
Checksum:              337

Satellite: OKEAN-4
Catalog number: 23317
Epoch time:      06187.72612665
Element set:     990
Inclination:      082.5392 deg
RA of node:       258.7772 deg
Eccentricity:    0.0021211
Arg of perigee:   314.1148 deg
Mean anomaly:     045.8332 deg
Mean motion:   14.82374574 rev/day
Decay rate:       2.66e-06 rev/day^2
Epoch rev:           63287
Checksum:              311

Satellite: NOAA-14
Catalog number: 23455
Epoch time:      06187.47991308
Element set:     182
Inclination:      099.0365 deg
RA of node:       245.9569 deg
Eccentricity:    0.0009156
Arg of perigee:   002.1780 deg
Mean anomaly:     357.9432 deg
Mean motion:   14.13669348 rev/day
Decay rate:       1.25e-06 rev/day^2
Epoch rev:           59379
Checksum:              338

Satellite: SICH-1
Catalog number: 23657
Epoch time:      06187.73354474
Element set:     792
Inclination:      082.5283 deg
RA of node:       039.6711 deg
Eccentricity:    0.0022772
Arg of perigee:   302.0268 deg
Mean anomaly:     057.8717 deg
Mean motion:   14.81369521 rev/day
Decay rate:        6.7e-07 rev/day^2
Epoch rev:           58488
Checksum:              329

Satellite: NOAA-15
Catalog number: 25338
Epoch time:      06187.19808852
Element set:     572
Inclination:      098.5146 deg
RA of node:       188.9308 deg
Eccentricity:    0.0009988
Arg of perigee:   323.8792 deg
Mean anomaly:     036.1740 deg
Mean motion:   14.24589854 rev/day
Decay rate:        3.1e-07 rev/day^2
Epoch rev:           42342
Checksum:              343

Satellite: RESURS
Catalog number: 25394
Epoch time:      06186.76265125
Element set:    0420
Inclination:      098.4924 deg
RA of node:       249.0264 deg
Eccentricity:    0.0002199
Arg of perigee:   102.6829 deg
Mean anomaly:     257.4596 deg
Mean motion:   14.24105484 rev/day
Decay rate:        1.1e-07 rev/day^2
Epoch rev:           41504
Checksum:              293

Satellite: FENGYUN1
Catalog number: 25730
Epoch time:      06186.54823211
Element set:    0769
Inclination:      098.6260 deg
RA of node:       178.4006 deg
Eccentricity:    0.0015468
Arg of perigee:   089.2357 deg
Mean anomaly:     271.0596 deg
Mean motion:   14.11811808 rev/day
Decay rate:       -1.0e-08 rev/day^2
Epoch rev:           36860
Checksum:              301

Satellite: OKEAN-0
Catalog number: 25860
Epoch time:      06187.56610899
Element set:     792
Inclination:      097.7319 deg
RA of node:       200.9957 deg
Eccentricity:    0.0001914
Arg of perigee:   067.7224 deg
Mean anomaly:     292.4187 deg
Mean motion:   14.73374122 rev/day
Decay rate:        6.2e-07 rev/day^2
Epoch rev:           37460
Checksum:              322

Satellite: NOAA-16
Catalog number: 26536
Epoch time:      06187.27317614
Element set:     947
Inclination:      099.0675 deg
RA of node:       154.1166 deg
Eccentricity:    0.0011474
Arg of perigee:   067.3832 deg
Mean anomaly:     292.8562 deg
Mean motion:   14.12350969 rev/day
Decay rate:      -1.22e-06 rev/day^2
Epoch rev:           29827
Checksum:              326

Satellite: NOAA-17
Catalog number: 27453
Epoch time:      06187.49681262
Element set:     966
Inclination:      098.6201 deg
RA of node:       259.3339 deg
Eccentricity:    0.0012052
Arg of perigee:   024.0860 deg
Mean anomaly:     336.0877 deg
Mean motion:   14.23791330 rev/day
Decay rate:        9.1e-07 rev/day^2
Epoch rev:           20952
Checksum:              306

